contact:dominique.lefevre@mio.osupytheas.fr, maurice.libes@osupytheas.fr, didier.mallarino@osupytheas.fr
Project:EMSO http://www.emso-fr.org/EMSO-France
Depth: 2436.0 m
Title:EMSO Ligure Ouest : Data MII capteur CSTAR
DateTime,Latitude,Longitude,Instrument_Serial,Reference_Counts,Signal_Counts,Corrected_Signal_raw_counts,Calculated_Beam_c_inverse_meters,Internal_thermistor_counts
DateTime,Latitude,Longitude,Instrument_Serial,Reference_Counts,Signal_Counts,Corrected_Signal_raw_counts,Calculated_Beam_c_inverse_meters,Internal_thermistor_counts
2020-01-23T00:01:10,42.805,6.029,CST-1368DR,6913,9691,15255,0.094,551
2020-01-23T00:04:11,42.805,6.029,CST-1368DR,6913,9688,15251,0.095,551
2020-01-23T00:07:13,42.805,6.029,CST-1368DR,6913,9689,15251,0.095,551
2020-01-23T00:10:15,42.805,6.029,CST-1368DR,6913,9690,15253,0.094,551
2020-01-23T00:13:16,42.805,6.029,CST-1368DR,6913,9690,15253,0.094,551
2020-01-23T00:16:18,42.805,6.029,CST-1368DR,6913,9687,15249,0.095,551
2020-01-23T00:19:20,42.805,6.029,CST-1368DR,6913,9689,15251,0.095,551
2020-01-23T00:22:21,42.805,6.029,CST-1368DR,6913,9689,15252,0.094,551
2020-01-23T00:25:23,42.805,6.029,CST-1368DR,6913,9688,15250,0.095,551
2020-01-23T00:28:25,42.805,6.029,CST-1368DR,6913,9689,15251,0.095,551
2020-01-23T00:31:27,42.805,6.029,CST-1368DR,6913,9690,15253,0.094,551
2020-01-23T00:34:28,42.805,6.029,CST-1368DR,6913,9688,15251,0.095,550
2020-01-23T00:37:30,42.805,6.029,CST-1368DR,6913,9688,15250,0.095,551
2020-01-23T00:40:32,42.805,6.029,CST-1368DR,6913,9689,15251,0.095,551
2020-01-23T00:43:33,42.805,6.029,CST-1368DR,6913,9689,15252,0.094,551
2020-01-23T00:46:35,42.805,6.029,CST-1368DR,6913,9690,15254,0.094,551
2020-01-23T00:49:36,42.805,6.029,CST-1368DR,6913,9689,15251,0.095,551
2020-01-23T00:52:38,42.805,6.029,CST-1368DR,6913,9689,15251,0.095,551
2020-01-23T00:55:40,42.805,6.029,CST-1368DR,6913,9689,15252,0.094,551
2020-01-23T00:58:41,42.805,6.029,CST-1368DR,6913,9690,15253,0.094,551
2020-01-23T01:01:43,42.805,6.029,CST-1368DR,6913,9690,15253,0.094,551
2020-01-23T01:04:45,42.805,6.029,CST-1368DR,6913,9690,15253,0.094,551
2020-01-23T01:07:46,42.805,6.029,CST-1368DR,6913,9690,15253,0.094,551
2020-01-23T01:10:48,42.805,6.029,CST-1368DR,6913,9690,15253,0.094,551
2020-01-23T01:13:50,42.805,6.029,CST-1368DR,6913,9690,15253,0.094,550
2020-01-23T01:16:51,42.805,6.029,CST-1368DR,6913,9690,15254,0.094,551
2020-01-23T01:19:53,42.805,6.029,CST-1368DR,6913,9689,15252,0.094,551
2020-01-23T01:22:55,42.805,6.029,CST-1368DR,6913,9690,15253,0.094,551
2020-01-23T01:25:56,42.805,6.029,CST-1368DR,6913,9690,15253,0.094,551
2020-01-23T01:28:58,42.805,6.029,CST-1368DR,6913,9690,15253,0.094,551
2020-01-23T01:32:00,42.805,6.029,CST-1368DR,6913,9689,15251,0.095,551
2020-01-23T01:35:01,42.805,6.029,CST-1368DR,6913,9688,15250,0.095,551
2020-01-23T01:38:03,42.805,6.029,CST-1368DR,6913,9689,15252,0.094,551
2020-01-23T01:41:04,42.805,6.029,CST-1368DR,6913,9689,15251,0.095,551
2020-01-23T01:44:06,42.805,6.029,CST-1368DR,6913,9689,15252,0.094,551
2020-01-23T01:47:08,42.805,6.029,CST-1368DR,6913,9689,15252,0.094,551
2020-01-23T01:50:09,42.805,6.029,CST-1368DR,6913,9688,15250,0.095,550
2020-01-23T01:53:11,42.805,6.029,CST-1368DR,6913,9689,15252,0.094,551
2020-01-23T01:56:13,42.805,6.029,CST-1368DR,6913,9689,15252,0.094,551
2020-01-23T01:59:14,42.805,6.029,CST-1368DR,6913,9690,15253,0.094,551
2020-01-23T02:02:16,42.805,6.029,CST-1368DR,6913,9690,15253,0.094,551
2020-01-23T02:05:18,42.805,6.029,CST-1368DR,6913,9690,15253,0.094,551
2020-01-23T02:08:19,42.805,6.029,CST-1368DR,6913,9690,15253,0.094,551
2020-01-23T02:11:21,42.805,6.029,CST-1368DR,6913,9686,15247,0.096,551
2020-01-23T02:14:23,42.805,6.029,CST-1368DR,6913,9688,15251,0.095,551
2020-01-23T02:17:24,42.805,6.029,CST-1368DR,6913,9690,15253,0.094,551
2020-01-23T02:20:26,42.805,6.029,CST-1368DR,6913,9686,15248,0.095,551
2020-01-23T02:23:28,42.805,6.029,CST-1368DR,6913,9690,15253,0.094,551
2020-01-23T02:26:29,42.805,6.029,CST-1368DR,6913,9690,15253,0.094,551
2020-01-23T02:29:31,42.805,6.029,CST-1368DR,6913,9690,15253,0.094,551
2020-01-23T02:32:32,42.805,6.029,CST-1368DR,6913,9690,15253,0.094,551
2020-01-23T02:35:34,42.805,6.029,CST-1368DR,6913,9690,15253,0.094,551
2020-01-23T02:38:36,42.805,6.029,CST-1368DR,6913,9688,15250,0.095,551
2020-01-23T02:41:37,42.805,6.029,CST-1368DR,6913,9690,15254,0.094,551
2020-01-23T02:44:39,42.805,6.029,CST-1368DR,6913,9689,15251,0.095,551
2020-01-23T02:47:41,42.805,6.029,CST-1368DR,6913,9688,15250,0.095,550
2020-01-23T02:50:42,42.805,6.029,CST-1368DR,6913,9688,15250,0.095,551
2020-01-23T02:53:44,42.805,6.029,CST-1368DR,6913,9688,15249,0.095,551
2020-01-23T02:56:46,42.805,6.029,CST-1368DR,6913,9689,15251,0.095,551
2020-01-23T02:59:47,42.805,6.029,CST-1368DR,6913,9687,15248,0.095,551
2020-01-23T03:02:49,42.805,6.029,CST-1368DR,6913,9688,15250,0.095,551
2020-01-23T03:05:51,42.805,6.029,CST-1368DR,6913,9688,15250,0.095,551
2020-01-23T03:08:52,42.805,6.029,CST-1368DR,6913,9690,15253,0.094,551
2020-01-23T03:11:54,42.805,6.029,CST-1368DR,6913,9689,15252,0.094,551
2020-01-23T03:14:56,42.805,6.029,CST-1368DR,6913,9688,15250,0.095,551
2020-01-23T03:17:57,42.805,6.029,CST-1368DR,6913,9688,15250,0.095,551
2020-01-23T03:20:59,42.805,6.029,CST-1368DR,6913,9689,15251,0.095,551
2020-01-23T03:24:01,42.805,6.029,CST-1368DR,6913,9687,15248,0.095,551
2020-01-23T03:27:02,42.805,6.029,CST-1368DR,6913,9686,15247,0.096,551
2020-01-23T03:30:04,42.805,6.029,CST-1368DR,6913,9688,15251,0.095,551
2020-01-23T03:33:06,42.805,6.029,CST-1368DR,6913,9688,15250,0.095,551
2020-01-23T03:36:07,42.805,6.029,CST-1368DR,6913,9689,15252,0.094,551
2020-01-23T03:39:09,42.805,6.029,CST-1368DR,6913,9688,15251,0.095,551
2020-01-23T03:42:11,42.805,6.029,CST-1368DR,6913,9690,15253,0.094,551
2020-01-23T03:45:12,42.805,6.029,CST-1368DR,6913,9689,15252,0.094,551
2020-01-23T03:48:14,42.805,6.029,CST-1368DR,6913,9689,15252,0.094,551
2020-01-23T03:51:16,42.805,6.029,CST-1368DR,6913,9690,15253,0.094,551
2020-01-23T03:54:17,42.805,6.029,CST-1368DR,6913,9688,15250,0.095,551
2020-01-23T03:57:19,42.805,6.029,CST-1368DR,6913,9689,15252,0.094,551
2020-01-23T04:00:21,42.805,6.029,CST-1368DR,6913,9688,15251,0.095,551
2020-01-23T04:03:22,42.805,6.029,CST-1368DR,6913,9690,15253,0.094,551
2020-01-23T04:06:24,42.805,6.029,CST-1368DR,6913,9689,15251,0.095,551
2020-01-23T04:09:26,42.805,6.029,CST-1368DR,6913,9687,15248,0.095,551
2020-01-23T04:12:27,42.805,6.029,CST-1368DR,6913,9688,15250,0.095,551
2020-01-23T04:15:29,42.805,6.029,CST-1368DR,6913,9688,15251,0.095,551
2020-01-23T04:18:31,42.805,6.029,CST-1368DR,6913,9689,15251,0.095,551
2020-01-23T04:21:32,42.805,6.029,CST-1368DR,6913,9689,15251,0.095,551
2020-01-23T04:24:34,42.805,6.029,CST-1368DR,6912,9687,15250,0.095,551
2020-01-23T04:27:36,42.805,6.029,CST-1368DR,6913,9688,15251,0.095,551
2020-01-23T04:30:37,42.805,6.029,CST-1368DR,6913,9685,15246,0.096,551
2020-01-23T04:33:39,42.805,6.029,CST-1368DR,6912,9688,15253,0.094,551
2020-01-23T04:36:40,42.805,6.029,CST-1368DR,6912,9688,15252,0.094,551
2020-01-23T04:39:42,42.805,6.029,CST-1368DR,6913,9689,15252,0.094,551
2020-01-23T04:42:44,42.805,6.029,CST-1368DR,6912,9689,15253,0.094,551
2020-01-23T04:45:45,42.805,6.029,CST-1368DR,6913,9689,15251,0.095,551
2020-01-23T04:48:47,42.805,6.029,CST-1368DR,6912,9688,15253,0.094,551
2020-01-23T04:51:49,42.805,6.029,CST-1368DR,6913,9688,15251,0.095,551
2020-01-23T04:54:50,42.805,6.029,CST-1368DR,6912,9689,15253,0.094,551
2020-01-23T04:57:52,42.805,6.029,CST-1368DR,6912,9688,15252,0.094,551
2020-01-23T05:00:54,42.805,6.029,CST-1368DR,6912,9688,15252,0.094,551
2020-01-23T05:03:55,42.805,6.029,CST-1368DR,6912,9687,15250,0.095,551
2020-01-23T05:06:57,42.805,6.029,CST-1368DR,6912,9688,15252,0.094,551
2020-01-23T05:09:59,42.805,6.029,CST-1368DR,6912,9689,15254,0.094,551
2020-01-23T05:13:00,42.805,6.029,CST-1368DR,6912,9688,15252,0.094,551
2020-01-23T05:16:02,42.805,6.029,CST-1368DR,6912,9687,15251,0.095,551
2020-01-23T05:19:04,42.805,6.029,CST-1368DR,6912,9687,15250,0.095,551
2020-01-23T05:22:05,42.805,6.029,CST-1368DR,6912,9689,15253,0.094,551
2020-01-23T05:25:07,42.805,6.029,CST-1368DR,6912,9683,15244,0.096,551
2020-01-23T05:28:08,42.805,6.029,CST-1368DR,6912,9687,15250,0.095,551
2020-01-23T05:31:10,42.805,6.029,CST-1368DR,6912,9686,15249,0.095,551
2020-01-23T05:34:12,42.805,6.029,CST-1368DR,6912,9687,15251,0.095,551
2020-01-23T05:37:13,42.805,6.029,CST-1368DR,6912,9688,15252,0.094,551
2020-01-23T05:40:16,42.805,6.029,CST-1368DR,6912,9688,15252,0.094,551
2020-01-23T05:43:17,42.805,6.029,CST-1368DR,6912,9686,15249,0.095,551
2020-01-23T05:46:19,42.805,6.029,CST-1368DR,6912,9688,15252,0.094,551
2020-01-23T05:49:21,42.805,6.029,CST-1368DR,6912,9688,15252,0.094,550
2020-01-23T05:52:23,42.805,6.029,CST-1368DR,6912,9688,15252,0.094,551
2020-01-23T05:55:24,42.805,6.029,CST-1368DR,6912,9687,15251,0.095,551
2020-01-23T05:58:26,42.805,6.029,CST-1368DR,6912,9686,15249,0.095,551
2020-01-23T06:01:28,42.805,6.029,CST-1368DR,6912,9688,15252,0.094,551
2020-01-23T06:04:30,42.805,6.029,CST-1368DR,6912,9686,15250,0.095,551
2020-01-23T06:07:31,42.805,6.029,CST-1368DR,6912,9687,15251,0.095,551
2020-01-23T06:10:33,42.805,6.029,CST-1368DR,6912,9688,15252,0.094,551
2020-01-23T06:13:35,42.805,6.029,CST-1368DR,6912,9688,15252,0.094,551
2020-01-23T06:16:37,42.805,6.029,CST-1368DR,6912,9686,15250,0.095,551
2020-01-23T06:19:38,42.805,6.029,CST-1368DR,6912,9688,15252,0.094,551
2020-01-23T06:22:40,42.805,6.029,CST-1368DR,6912,9688,15252,0.094,551
2020-01-23T06:25:42,42.805,6.029,CST-1368DR,6912,9688,15252,0.094,551
2020-01-23T06:28:43,42.805,6.029,CST-1368DR,6912,9686,15250,0.095,551
2020-01-23T06:31:45,42.805,6.029,CST-1368DR,6912,9688,15252,0.094,551
2020-01-23T06:34:47,42.805,6.029,CST-1368DR,6912,9687,15251,0.095,551
2020-01-23T06:37:48,42.805,6.029,CST-1368DR,6912,9686,15249,0.095,551
2020-01-23T06:40:50,42.805,6.029,CST-1368DR,6912,9687,15251,0.095,550
2020-01-23T06:43:52,42.805,6.029,CST-1368DR,6912,9687,15251,0.095,551
2020-01-23T06:46:53,42.805,6.029,CST-1368DR,6912,9687,15251,0.095,551
2020-01-23T06:49:55,42.805,6.029,CST-1368DR,6912,9685,15248,0.095,551
2020-01-23T06:52:56,42.805,6.029,CST-1368DR,6912,9687,15251,0.095,551
2020-01-23T06:55:58,42.805,6.029,CST-1368DR,6912,9687,15251,0.095,551
2020-01-23T06:59:00,42.805,6.029,CST-1368DR,6912,9687,15250,0.095,551
2020-01-23T07:02:01,42.805,6.029,CST-1368DR,6912,9687,15251,0.095,551
2020-01-23T07:05:03,42.805,6.029,CST-1368DR,6912,9685,15248,0.095,551
2020-01-23T07:08:05,42.805,6.029,CST-1368DR,6912,9688,15252,0.094,551
2020-01-23T07:11:07,42.805,6.029,CST-1368DR,6912,9686,15249,0.095,550
2020-01-23T07:14:08,42.805,6.029,CST-1368DR,6912,9685,15248,0.095,551
2020-01-23T07:17:10,42.805,6.029,CST-1368DR,6912,9688,15252,0.094,551
2020-01-23T07:20:11,42.805,6.029,CST-1368DR,6912,9687,15251,0.095,551
2020-01-23T07:23:13,42.805,6.029,CST-1368DR,6912,9686,15250,0.095,551
2020-01-23T07:26:15,42.805,6.029,CST-1368DR,6912,9688,15252,0.094,551
2020-01-23T07:29:17,42.805,6.029,CST-1368DR,6912,9687,15251,0.095,551
2020-01-23T07:32:18,42.805,6.029,CST-1368DR,6912,9687,15250,0.095,551
2020-01-23T07:35:20,42.805,6.029,CST-1368DR,6912,9686,15250,0.095,551
2020-01-23T07:38:22,42.805,6.029,CST-1368DR,6912,9685,15248,0.095,551
2020-01-23T07:41:23,42.805,6.029,CST-1368DR,6912,9686,15249,0.095,551
2020-01-23T07:44:25,42.805,6.029,CST-1368DR,6912,9684,15246,0.096,551
2020-01-23T07:47:27,42.805,6.029,CST-1368DR,6912,9686,15250,0.095,551
2020-01-23T07:50:28,42.805,6.029,CST-1368DR,6912,9685,15248,0.095,551
2020-01-23T07:53:30,42.805,6.029,CST-1368DR,6912,9687,15250,0.095,551
2020-01-23T07:56:32,42.805,6.029,CST-1368DR,6912,9685,15248,0.095,551
2020-01-23T07:59:33,42.805,6.029,CST-1368DR,6912,9686,15249,0.095,551
2020-01-23T08:02:35,42.805,6.029,CST-1368DR,6912,9686,15250,0.095,551
2020-01-23T08:05:37,42.805,6.029,CST-1368DR,6912,9687,15250,0.095,551
2020-01-23T08:08:38,42.805,6.029,CST-1368DR,6912,9686,15249,0.095,551
2020-01-23T08:11:40,42.805,6.029,CST-1368DR,6912,9685,15248,0.095,551
2020-01-23T08:14:42,42.805,6.029,CST-1368DR,6912,9686,15250,0.095,550
2020-01-23T08:17:43,42.805,6.029,CST-1368DR,6912,9687,15251,0.095,551
2020-01-23T08:20:45,42.805,6.029,CST-1368DR,6912,9685,15247,0.096,551
2020-01-23T08:23:47,42.805,6.029,CST-1368DR,6912,9686,15249,0.095,551
2020-01-23T08:26:48,42.805,6.029,CST-1368DR,6912,9687,15250,0.095,551
2020-01-23T08:29:50,42.805,6.029,CST-1368DR,6912,9685,15248,0.095,551
2020-01-23T08:32:52,42.805,6.029,CST-1368DR,6912,9685,15247,0.096,551
2020-01-23T08:35:53,42.805,6.029,CST-1368DR,6912,9686,15250,0.095,551
2020-01-23T08:38:55,42.805,6.029,CST-1368DR,6912,9683,15244,0.096,551
2020-01-23T08:41:56,42.805,6.029,CST-1368DR,6912,9684,15246,0.096,551
2020-01-23T08:44:58,42.805,6.029,CST-1368DR,6912,9686,15249,0.095,551
2020-01-23T08:48:00,42.805,6.029,CST-1368DR,6912,9686,15249,0.095,551
2020-01-23T08:51:01,42.805,6.029,CST-1368DR,6912,9676,15233,0.099,551
2020-01-23T08:54:03,42.805,6.029,CST-1368DR,6912,9685,15247,0.096,551
2020-01-23T08:57:05,42.805,6.029,CST-1368DR,6912,9683,15245,0.096,551
2020-01-23T09:00:06,42.805,6.029,CST-1368DR,6911,9683,15246,0.096,551
2020-01-23T09:03:08,42.805,6.029,CST-1368DR,6912,9685,15248,0.095,551
2020-01-23T09:06:10,42.805,6.029,CST-1368DR,6912,9685,15248,0.095,551
2020-01-23T09:09:11,42.805,6.029,CST-1368DR,6912,9685,15248,0.095,551
2020-01-23T09:12:13,42.805,6.029,CST-1368DR,6912,9685,15247,0.096,551
2020-01-23T09:15:15,42.805,6.029,CST-1368DR,6911,9685,15250,0.095,551
2020-01-23T09:18:16,42.805,6.029,CST-1368DR,6912,9685,15248,0.095,551
2020-01-23T09:21:18,42.805,6.029,CST-1368DR,6912,9685,15247,0.096,551
2020-01-23T09:24:20,42.805,6.029,CST-1368DR,6912,9685,15248,0.095,551
2020-01-23T09:27:21,42.805,6.029,CST-1368DR,6911,9686,15251,0.095,551
2020-01-23T09:30:23,42.805,6.029,CST-1368DR,6911,9684,15248,0.095,551
2020-01-23T09:33:25,42.805,6.029,CST-1368DR,6911,9684,15248,0.095,551
2020-01-23T09:36:26,42.805,6.029,CST-1368DR,6911,9685,15249,0.095,551
2020-01-23T09:39:28,42.805,6.029,CST-1368DR,6912,9683,15244,0.096,551
2020-01-23T09:42:30,42.805,6.029,CST-1368DR,6912,9685,15248,0.095,551
2020-01-23T09:45:31,42.805,6.029,CST-1368DR,6912,9685,15248,0.095,551
2020-01-23T09:48:33,42.805,6.029,CST-1368DR,6911,9685,15249,0.095,551
2020-01-23T09:51:35,42.805,6.029,CST-1368DR,6911,9685,15249,0.095,551
2020-01-23T09:54:36,42.805,6.029,CST-1368DR,6911,9685,15250,0.095,551
2020-01-23T09:57:38,42.805,6.029,CST-1368DR,6911,9684,15249,0.095,551
2020-01-23T10:00:40,42.805,6.029,CST-1368DR,6911,9682,15245,0.096,551
2020-01-23T10:03:42,42.805,6.029,CST-1368DR,6911,9685,15249,0.095,551
2020-01-23T10:06:43,42.805,6.029,CST-1368DR,6911,9683,15246,0.096,551
2020-01-23T10:09:45,42.805,6.029,CST-1368DR,6911,9684,15249,0.095,551
2020-01-23T10:12:47,42.805,6.029,CST-1368DR,6911,9684,15247,0.096,551
2020-01-23T10:15:48,42.805,6.029,CST-1368DR,6911,9684,15249,0.095,551
2020-01-23T10:18:50,42.805,6.029,CST-1368DR,6911,9683,15246,0.096,551
2020-01-23T10:21:52,42.805,6.029,CST-1368DR,6911,9683,15246,0.096,550
2020-01-23T10:24:53,42.805,6.029,CST-1368DR,6911,9684,15248,0.095,551
2020-01-23T10:27:55,42.805,6.029,CST-1368DR,6911,9682,15245,0.096,551
2020-01-23T10:30:57,42.805,6.029,CST-1368DR,6911,9685,15250,0.095,551
2020-01-23T10:33:58,42.805,6.029,CST-1368DR,6911,9683,15246,0.096,551
2020-01-23T10:37:00,42.805,6.029,CST-1368DR,6911,9683,15246,0.096,550
2020-01-23T10:40:02,42.805,6.029,CST-1368DR,6911,9681,15244,0.096,551
2020-01-23T10:43:03,42.805,6.029,CST-1368DR,6911,9684,15249,0.095,551
2020-01-23T10:46:05,42.805,6.029,CST-1368DR,6911,9684,15248,0.095,551
2020-01-23T10:49:07,42.805,6.029,CST-1368DR,6911,9684,15249,0.095,551
2020-01-23T10:52:08,42.805,6.029,CST-1368DR,6911,9684,15248,0.095,551
2020-01-23T10:55:10,42.805,6.029,CST-1368DR,6911,9679,15241,0.097,551
2020-01-23T10:58:12,42.805,6.029,CST-1368DR,6911,9683,15247,0.096,551
2020-01-23T11:01:13,42.805,6.029,CST-1368DR,6911,9684,15248,0.095,551
2020-01-23T11:04:15,42.805,6.029,CST-1368DR,6911,9683,15247,0.096,551
2020-01-23T11:07:17,42.805,6.029,CST-1368DR,6911,9684,15248,0.095,551
2020-01-23T11:10:18,42.805,6.029,CST-1368DR,6911,9679,15239,0.098,551
2020-01-23T11:13:20,42.805,6.029,CST-1368DR,6911,9683,15246,0.096,550
2020-01-23T11:16:22,42.805,6.029,CST-1368DR,6911,9683,15247,0.096,550
2020-01-23T11:19:23,42.805,6.029,CST-1368DR,6911,9684,15248,0.095,551
2020-01-23T11:22:25,42.805,6.029,CST-1368DR,6911,9682,15245,0.096,551
2020-01-23T11:25:27,42.805,6.029,CST-1368DR,6911,9683,15247,0.096,551
2020-01-23T11:28:28,42.805,6.029,CST-1368DR,6911,9683,15247,0.096,551
2020-01-23T11:31:30,42.805,6.029,CST-1368DR,6911,9679,15241,0.097,551
2020-01-23T11:34:32,42.805,6.029,CST-1368DR,6911,9683,15246,0.096,551
2020-01-23T11:37:33,42.805,6.029,CST-1368DR,6911,9684,15248,0.095,551
2020-01-23T11:40:35,42.805,6.029,CST-1368DR,6911,9684,15247,0.096,551
2020-01-23T11:43:37,42.805,6.029,CST-1368DR,6911,9683,15247,0.096,551
2020-01-23T11:46:38,42.805,6.029,CST-1368DR,6911,9683,15246,0.096,551
2020-01-23T11:49:40,42.805,6.029,CST-1368DR,6911,9683,15246,0.096,551
2020-01-23T11:52:42,42.805,6.029,CST-1368DR,6911,9682,15244,0.096,551
2020-01-23T11:55:43,42.805,6.029,CST-1368DR,6910,9683,15249,0.095,551
2020-01-23T11:58:45,42.805,6.029,CST-1368DR,6910,9682,15247,0.096,551
2020-01-23T12:01:46,42.805,6.029,CST-1368DR,6910,9682,15247,0.096,551
2020-01-23T12:04:48,42.805,6.029,CST-1368DR,6910,9682,15246,0.096,551
2020-01-23T12:07:50,42.805,6.029,CST-1368DR,6909,9677,15241,0.097,550
2020-01-23T12:10:51,42.805,6.029,CST-1368DR,6909,9678,15242,0.097,551
2020-01-23T12:13:53,42.805,6.029,CST-1368DR,6909,9679,15244,0.096,551
2020-01-23T12:16:55,42.805,6.029,CST-1368DR,6910,9670,15227,0.101,551
2020-01-23T12:19:56,42.805,6.029,CST-1368DR,6910,9680,15243,0.097,551
2020-01-23T12:22:58,42.805,6.029,CST-1368DR,6910,9682,15247,0.096,551
2020-01-23T12:26:00,42.805,6.029,CST-1368DR,6910,9680,15244,0.096,551
2020-01-23T12:29:01,42.805,6.029,CST-1368DR,6910,9681,15245,0.096,550
2020-01-23T12:32:03,42.805,6.029,CST-1368DR,6910,9679,15243,0.097,551
2020-01-23T12:35:04,42.805,6.029,CST-1368DR,6910,9682,15247,0.096,551
2020-01-23T12:38:06,42.805,6.029,CST-1368DR,6910,9682,15247,0.096,551
2020-01-23T12:41:08,42.805,6.029,CST-1368DR,6910,9683,15248,0.095,551
2020-01-23T12:44:10,42.805,6.029,CST-1368DR,6910,9681,15245,0.096,551
2020-01-23T12:47:11,42.805,6.029,CST-1368DR,6910,9681,15245,0.096,551
2020-01-23T12:50:13,42.805,6.029,CST-1368DR,6910,9680,15244,0.096,551
2020-01-23T12:53:15,42.805,6.029,CST-1368DR,6910,9681,15245,0.096,550
2020-01-23T12:56:16,42.805,6.029,CST-1368DR,6910,9681,15245,0.096,551
2020-01-23T12:59:18,42.805,6.029,CST-1368DR,6910,9681,15245,0.096,551
2020-01-23T13:02:20,42.805,6.029,CST-1368DR,6910,9682,15246,0.096,550
2020-01-23T13:05:21,42.805,6.029,CST-1368DR,6910,9678,15240,0.097,551
2020-01-23T13:08:23,42.805,6.029,CST-1368DR,6910,9679,15243,0.097,550
2020-01-23T13:11:25,42.805,6.029,CST-1368DR,6910,9680,15244,0.096,551
2020-01-23T13:14:26,42.805,6.029,CST-1368DR,6910,9681,15245,0.096,550
2020-01-23T13:17:28,42.805,6.029,CST-1368DR,6910,9682,15246,0.096,551
2020-01-23T13:20:29,42.805,6.029,CST-1368DR,6910,9682,15246,0.096,551
2020-01-23T13:23:31,42.805,6.029,CST-1368DR,6910,9680,15243,0.097,550
2020-01-23T13:26:33,42.805,6.029,CST-1368DR,6910,9681,15245,0.096,551
2020-01-23T13:29:34,42.805,6.029,CST-1368DR,6910,9676,15237,0.098,551
2020-01-23T13:32:36,42.805,6.029,CST-1368DR,6910,9684,15249,0.095,551
2020-01-23T13:35:38,42.805,6.029,CST-1368DR,6910,9681,15245,0.096,551
2020-01-23T13:38:39,42.805,6.029,CST-1368DR,6910,9682,15247,0.096,551
2020-01-23T13:41:41,42.805,6.029,CST-1368DR,6910,9681,15245,0.096,551
2020-01-23T13:44:42,42.805,6.029,CST-1368DR,6910,9680,15244,0.096,551
2020-01-23T13:47:44,42.805,6.029,CST-1368DR,6910,9681,15245,0.096,551
2020-01-23T13:50:46,42.805,6.029,CST-1368DR,6910,9671,15229,0.100,551
2020-01-23T13:53:47,42.805,6.029,CST-1368DR,6910,9679,15242,0.097,551
2020-01-23T13:56:49,42.805,6.029,CST-1368DR,6910,9677,15240,0.097,550
2020-01-23T13:59:51,42.805,6.029,CST-1368DR,6910,9680,15243,0.097,551
2020-01-23T14:02:52,42.805,6.029,CST-1368DR,6910,9678,15240,0.097,551
2020-01-23T14:05:54,42.805,6.029,CST-1368DR,6910,9678,15241,0.097,551
2020-01-23T14:08:56,42.805,6.029,CST-1368DR,6910,9674,15234,0.099,551
2020-01-23T14:11:57,42.805,6.029,CST-1368DR,6910,9675,15236,0.099,551
2020-01-23T14:14:59,42.805,6.029,CST-1368DR,6910,9678,15240,0.097,551
2020-01-23T14:18:01,42.805,6.029,CST-1368DR,6910,9681,15246,0.096,551
2020-01-23T14:21:02,42.805,6.029,CST-1368DR,6910,9681,15245,0.096,551
2020-01-23T14:24:04,42.805,6.029,CST-1368DR,6910,9678,15240,0.097,551
2020-01-23T14:27:05,42.805,6.029,CST-1368DR,6910,9676,15238,0.098,551
2020-01-23T14:30:07,42.805,6.029,CST-1368DR,6910,9680,15244,0.096,551
2020-01-23T14:33:09,42.805,6.029,CST-1368DR,6910,9681,15246,0.096,551
2020-01-23T14:36:10,42.805,6.029,CST-1368DR,6910,9681,15245,0.096,551
2020-01-23T14:39:12,42.805,6.029,CST-1368DR,6910,9674,15234,0.099,551
2020-01-23T14:42:14,42.805,6.029,CST-1368DR,6910,9677,15239,0.098,551
2020-01-23T14:45:15,42.805,6.029,CST-1368DR,6910,9681,15245,0.096,551
2020-01-23T14:48:17,42.805,6.029,CST-1368DR,6910,9681,15245,0.096,551
2020-01-23T14:51:19,42.805,6.029,CST-1368DR,6910,9679,15243,0.097,550
2020-01-23T14:54:20,42.805,6.029,CST-1368DR,6910,9670,15228,0.101,550
2020-01-23T14:57:22,42.805,6.029,CST-1368DR,6910,9678,15241,0.097,551
2020-01-23T15:00:24,42.805,6.029,CST-1368DR,6910,9679,15242,0.097,551
2020-01-23T15:03:25,42.805,6.029,CST-1368DR,6910,9679,15242,0.097,551
2020-01-23T15:06:27,42.805,6.029,CST-1368DR,6910,9676,15238,0.098,551
2020-01-23T15:09:29,42.805,6.029,CST-1368DR,6910,9681,15245,0.096,551
2020-01-23T15:12:30,42.805,6.029,CST-1368DR,6910,9679,15242,0.097,551
2020-01-23T15:15:32,42.805,6.029,CST-1368DR,6910,9677,15239,0.098,551
2020-01-23T15:18:34,42.805,6.029,CST-1368DR,6910,9680,15243,0.097,551
2020-01-23T15:21:35,42.805,6.029,CST-1368DR,6910,9680,15244,0.096,551
2020-01-23T15:24:37,42.805,6.029,CST-1368DR,6910,9680,15244,0.096,551
2020-01-23T15:27:39,42.805,6.029,CST-1368DR,6910,9671,15230,0.100,551
2020-01-23T15:30:40,42.805,6.029,CST-1368DR,6910,9681,15245,0.096,551
2020-01-23T15:33:42,42.805,6.029,CST-1368DR,6910,9679,15242,0.097,551
2020-01-23T15:36:44,42.805,6.029,CST-1368DR,6910,9678,15240,0.097,551
2020-01-23T15:39:45,42.805,6.029,CST-1368DR,6910,9678,15241,0.097,551
2020-01-23T15:42:47,42.805,6.029,CST-1368DR,6910,9681,15245,0.096,551
2020-01-23T15:45:48,42.805,6.029,CST-1368DR,6910,9681,15245,0.096,551
2020-01-23T15:48:50,42.805,6.029,CST-1368DR,6910,9680,15244,0.096,551
2020-01-23T15:51:52,42.805,6.029,CST-1368DR,6910,9681,15245,0.096,551
2020-01-23T15:54:53,42.805,6.029,CST-1368DR,6910,9682,15246,0.096,551
2020-01-23T15:57:55,42.805,6.029,CST-1368DR,6910,9669,15227,0.101,551
2020-01-23T16:00:57,42.805,6.029,CST-1368DR,6910,9680,15243,0.097,551
2020-01-23T16:03:58,42.805,6.029,CST-1368DR,6910,9680,15243,0.097,551
2020-01-23T16:07:00,42.805,6.029,CST-1368DR,6910,9682,15246,0.096,551
2020-01-23T16:10:02,42.805,6.029,CST-1368DR,6910,9681,15245,0.096,551
2020-01-23T16:13:03,42.805,6.029,CST-1368DR,6910,9681,15245,0.096,551
2020-01-23T16:16:05,42.805,6.029,CST-1368DR,6910,9680,15244,0.096,551
2020-01-23T16:19:07,42.805,6.029,CST-1368DR,6910,9681,15245,0.096,551
2020-01-23T16:22:08,42.805,6.029,CST-1368DR,6910,9682,15246,0.096,551
2020-01-23T16:25:10,42.805,6.029,CST-1368DR,6910,9680,15244,0.096,551
2020-01-23T16:28:12,42.805,6.029,CST-1368DR,6910,9681,15246,0.096,550
2020-01-23T16:31:13,42.805,6.029,CST-1368DR,6910,9680,15244,0.096,550
2020-01-23T16:34:15,42.805,6.029,CST-1368DR,6910,9675,15235,0.099,551
2020-01-23T16:37:17,42.805,6.029,CST-1368DR,6910,9682,15247,0.096,551
2020-01-23T16:40:19,42.805,6.029,CST-1368DR,6910,9680,15243,0.097,551
2020-01-23T16:43:20,42.805,6.029,CST-1368DR,6910,9680,15244,0.096,551
2020-01-23T16:46:22,42.805,6.029,CST-1368DR,6910,9681,15245,0.096,551
2020-01-23T16:49:24,42.805,6.029,CST-1368DR,6910,9681,15246,0.096,551
2020-01-23T16:52:25,42.805,6.029,CST-1368DR,6910,9681,15245,0.096,551